Precipitable_Water
1.28 1.34 1.44 1.51 1.55 1.58 1.61 1.63 1.70 1.74 1.78 1.77 1.73 1.72 1.75 1.75 1.70 1.63 1.58 1.54 1.43 1.29 1.21 1.20 1.23 1.31 1.32 1.33 1.38 1.41 1.42 1.41 1.40 1.38 1.39 1.38 1.34 1.30 1.28 1.30 1.27 1.27 1.26 1.22 1.24 1.30 1.40 1.48 1.48 1.49 1.54 1.56 1.54 1.54 1.55 1.57 1.57 1.57 1.58 1.59 1.60 1.60 1.60
1.19 1.28 1.36 1.46 1.51 1.55 1.62 1.68 1.70 1.73 1.77 1.74 1.72 1.69 1.70 1.67 1.74 1.72 1.68 1.61 1.54 1.40 1.25 1.19 1.17 1.21 1.29 1.33 1.35 1.39 1.38 1.38 1.39 1.38 1.37 1.38 1.41 1.38 1.39 1.38 1.36 1.36 1.37 1.36 1.37 1.41 1.46 1.52 1.53 1.50 1.49 1.52 1.51 1.53 1.57 1.59 1.59 1.59 1.59 1.63 1.61 1.58 1.55
1.14 1.22 1.28 1.38 1.48 1.52 1.56 1.64 1.70 1.73 1.75 1.75 1.74 1.72 1.69 1.68 1.68 1.65 1.65 1.67 1.63 1.53 1.39 1.24 1.18 1.15 1.22 1.30 1.33 1.34 1.36 1.36 1.34 1.33 1.29 1.28 1.32 1.37 1.42 1.43 1.43 1.44 1.48 1.50 1.49 1.47 1.49 1.49 1.52 1.51 1.50 1.50 1.50 1.52 1.56 1.56 1.56 1.58 1.60 1.60 1.56 1.50 1.47
1.10 1.14 1.22 1.32 1.41 1.50 1.57 1.60 1.65 1.70 1.77 1.79 1.75 1.71 1.69 1.69 1.72 1.72 1.73 1.65 1.65 1.64 1.49 1.33 1.22 1.16 1.16 1.20 1.26 1.31 1.33 1.35 1.34 1.31 1.30 1.30 1.30 1.34 1.36 1.40 1.42 1.45 1.48 1.50 1.53 1.53 1.51 1.48 1.46 1.46 1.49 1.49 1.49 1.51 1.54 1.53 1.54 1.54 1.55 1.56 1.52 1.49 1.46
1.04 1.10 1.13 1.17 1.24 1.37 1.46 1.53 1.60 1.65 1.68 1.76 1.80 1.79 1.74 1.73 1.72 1.75 1.73 1.71 1.66 1.62 1.66 1.53 1.34 1.23 1.19 1.20 1.21 1.26 1.29 1.32 1.33 1.33 1.33 1.32 1.32 1.33 1.32 1.34 1.38 1.40 1.43 1.47 1.50 1.49 1.46 1.43 1.41 1.42 1.43 1.47 1.48 1.52 1.54 1.56 1.53 1.53 1.52 1.52 1.47 1.47 1.44
0.94 0.99 1.04 1.09 1.14 1.21 1.32 1.45 1.55 1.63 1.68 1.70 1.75 1.79 1.79 1.75 1.75 1.70 1.74 1.73 1.70 1.65 1.65 1.67 1.51 1.32 1.20 1.19 1.20 1.21 1.26 1.31 1.33 1.33 1.32 1.33 1.31 1.30 1.30 1.33 1.35 1.37 1.38 1.40 1.46 1.45 1.44 1.40 1.39 1.40 1.40 1.44 1.46 1.48 1.51 1.52 1.53 1.54 1.52 1.52 1.49 1.48 1.44
0.94 0.98 1.02 1.07 1.12 1.17 1.22 1.32 1.45 1.57 1.68 1.73 1.78 1.82 1.81 1.79 1.76 1.75 1.75 1.71 1.70 1.67 1.64 1.60 1.53 1.46 1.32 1.26 1.21 1.19 1.17 1.21 1.26 1.27 1.29 1.30 1.32 1.31 1.31 1.34 1.34 1.33 1.37 1.42 1.39 1.41 1.40 1.38 1.38 1.39 1.40 1.42 1.44 1.43 1.43 1.43 1.44 1.49 1.50 1.48 1.47 1.48 1.45
0.97 0.98 1.05 1.10 1.14 1.18 1.21 1.26 1.36 1.50 1.62 1.71 1.75 1.76 1.76 1.80 1.80 1.76 1.73 1.71 1.67 1.70 1.71 1.64 1.51 1.49 1.45 1.38 1.29 1.21 1.16 1.16 1.22 1.26 1.28 1.27 1.29 1.29 1.31 1.33 1.33 1.34 1.37 1.34 1.37 1.39 1.38 1.38 1.39 1.38 1.39 1.40 1.42 1.43 1.42 1.41 1.41 1.41 1.40 1.36 1.35 1.36 1.41
0.99 1.03 1.06 1.10 1.13 1.16 1.21 1.25 1.32 1.41 1.52 1.61 1.68 1.75 1.78 1.79 1.80 1.79 1.74 1.76 1.70 1.65 1.70 1.71 1.60 1.54 1.53 1.48 1.39 1.29 1.24 1.22 1.21 1.22 1.23 1.23 1.24 1.26 1.29 1.31 1.33 1.36 1.34 1.33 1.35 1.39 1.39 1.38 1.38 1.37 1.38 1.40 1.41 1.41 1.40 1.40 1.39 1.40 1.38 1.36 1.33 1.31 1.35
0.91 0.97 1.05 1.11 1.15 1.16 1.18 1.23 1.29 1.35 1.42 1.52 1.61 1.70 1.77 1.81 1.82 1.84 1.83 1.78 1.77 1.68 1.69 1.73 1.69 1.60 1.55 1.52 1.48 1.42 1.34 1.24 1.22 1.22 1.22 1.19 1.20 1.21 1.25 1.30 1.33 1.37 1.34 1.35 1.36 1.34 1.37 1.39 1.38 1.38 1.38 1.38 1.40 1.43 1.44 1.46 1.48 1.49 1.50 1.49 1.47 1.45 1.43
0.88 0.94 0.99 1.04 1.09 1.14 1.16 1.18 1.23 1.29 1.38 1.47 1.56 1.65 1.73 1.78 1.81 1.83 1.83 1.84 1.79 1.75 1.75 1.74 1.77 1.70 1.59 1.55 1.54 1.52 1.43 1.31 1.23 1.18 1.17 1.17 1.19 1.18 1.21 1.25 1.30 1.34 1.34 1.34 1.32 1.31 1.32 1.34 1.38 1.37 1.36 1.36 1.38 1.40 1.41 1.44 1.48 1.49 1.52 1.55 1.56 1.55 1.54
0.85 0.88 0.91 0.98 1.05 1.09 1.09 1.15 1.21 1.27 1.34 1.44 1.54 1.61 1.67 1.73 1.78 1.82 1.85 1.87 1.88 1.81 1.78 1.74 1.78 1.77 1.66 1.61 1.54 1.54 1.52 1.43 1.30 1.20 1.16 1.14 1.15 1.17 1.19 1.21 1.23 1.24 1.27 1.29 1.27 1.27 1.29 1.28 1.30 1.33 1.34 1.38 1.41 1.43 1.46 1.54 1.61 1.65 1.64 1.62 1.62 1.63 1.64
0.84 0.86 0.89 0.94 1.01 1.08 1.12 1.14 1.18 1.24 1.31 1.41 1.51 1.61 1.65 1.69 1.73 1.78 1.83 1.86 1.90 1.88 1.83 1.82 1.81 1.78 1.74 1.70 1.63 1.59 1.56 1.54 1.40 1.26 1.21 1.20 1.17 1.18 1.19 1.19 1.21 1.21 1.20 1.24 1.25 1.24 1.23 1.25 1.27 1.33 1.37 1.41 1.45 1.47 1.53 1.66 1.78 1.79 1.76 1.74 1.75 1.76 1.75
0.80 0.84 0.89 0.94 1.00 1.05 1.08 1.13 1.20 1.24 1.30 1.37 1.48 1.60 1.67 1.71 1.73 1.77 1.81 1.82 1.88 1.91 1.88 1.86 1.82 1.75 1.78 1.78 1.75 1.71 1.64 1.60 1.55 1.38 1.26 1.25 1.26 1.23 1.21 1.21 1.22 1.22 1.24 1.26 1.25 1.24 1.23 1.24 1.26 1.34 1.44 1.50 1.54 1.60 1.68 1.78 1.82 1.83 1.84 1.85 1.84 1.81 1.81
0.72 0.78 0.84 0.90 0.96 1.06 1.11 1.13 1.16 1.23 1.29 1.36 1.44 1.54 1.65 1.72 1.75 1.77 1.80 1.86 1.90 1.93 1.90 1.89 1.85 1.76 1.73 1.75 1.76 1.77 1.74 1.72 1.70 1.57 1.38 1.29 1.28 1.26 1.24 1.23 1.25 1.27 1.28 1.27 1.25 1.25 1.26 1.29 1.34 1.39 1.47 1.56 1.63 1.69 1.77 1.80 1.83 1.87 1.87 1.84 1.83 1.85 1.83
0.72 0.76 0.82 0.89 0.97 1.06 1.13 1.19 1.22 1.24 1.29 1.36 1.40 1.48 1.60 1.70 1.76 1.79 1.79 1.82 1.91 1.94 1.96 1.96 1.88 1.82 1.80 1.78 1.75 1.80 1.84 1.82 1.81 1.73 1.56 1.38 1.28 1.26 1.27 1.27 1.27 1.28 1.28 1.27 1.27 1.29 1.30 1.33 1.39 1.45 1.50 1.56 1.62 1.68 1.73 1.76 1.80 1.86 1.90 1.90 1.87 1.86 1.85
0.74 0.78 0.84 0.92 1.00 1.08 1.14 1.18 1.23 1.26 1.29 1.34 1.39 1.44 1.53 1.66 1.78 1.83 1.84 1.86 1.90 1.96 2.01 1.99 1.90 1.88 1.84 1.83 1.87 1.90 1.88 1.85 1.84 1.82 1.72 1.61 1.47 1.37 1.32 1.31 1.32 1.30 1.28 1.30 1.35 1.36 1.37 1.38 1.39 1.45 1.54 1.58 1.60 1.64 1.71 1.76 1.79 1.81 1.86 1.89 1.92 1.92 1.89
0.77 0.82 0.87 0.93 1.01 1.08 1.12 1.15 1.19 1.23 1.28 1.33 1.39 1.44 1.49 1.57 1.69 1.79 1.82 1.87 1.90 1.96 2.03 2.01 1.94 1.89 1.88 1.93 1.95 1.92 1.85 1.83 1.84 1.83 1.80 1.77 1.70 1.60 1.52 1.46 1.39 1.34 1.32 1.35 1.37 1.39 1.39 1.36 1.39 1.47 1.55 1.59 1.62 1.64 1.69 1.76 1.82 1.83 1.85 1.87 1.90 1.93 1.92
0.83 0.87 0.92 0.97 1.02 1.06 1.09 1.12 1.18 1.24 1.31 1.37 1.40 1.41 1.48 1.56 1.62 1.69 1.80 1.85 1.93 1.98 1.98 1.97 1.93 1.91 1.91 1.96 1.98 1.96 1.92 1.88 1.87 1.88 1.87 1.84 1.80 1.75 1.71 1.65 1.56 1.48 1.44 1.42 1.46 1.45 1.40 1.38 1.41 1.44 1.51 1.56 1.61 1.67 1.76 1.82 1.88 1.90 1.91 1.91 1.91 1.91 1.89
0.89 0.94 0.97 1.02 1.06 1.09 1.12 1.16 1.22 1.29 1.34 1.39 1.45 1.50 1.55 1.59 1.61 1.69 1.80 1.86 1.90 1.94 1.96 1.94 1.93 1.91 1.93 1.99 2.03 2.04 2.03 2.00 1.98 1.94 1.95 1.97 1.95 1.85 1.76 1.74 1.69 1.64 1.60 1.57 1.55 1.51 1.48 1.51 1.54 1.60 1.64 1.67 1.70 1.74 1.81 1.85 1.88 1.88 1.87 1.84 1.82 1.79 1.77
0.93 0.96 0.98 1.00 1.03 1.10 1.14 1.16 1.21 1.28 1.34 1.39 1.47 1.54 1.55 1.56 1.64 1.71 1.75 1.80 1.82 1.89 1.93 1.95 1.93 1.92 1.94 1.94 2.02 2.03 2.05 2.04 2.05 2.03 2.02 1.99 2.00 1.98 1.82 1.72 1.72 1.73 1.71 1.70 1.68 1.65 1.63 1.67 1.73 1.81 1.86 1.87 1.87 1.83 1.82 1.83 1.82 1.79 1.76 1.73 1.70 1.69 1.70
0.98 1.01 1.01 1.03 1.04 1.12 1.16 1.17 1.20 1.25 1.32 1.42 1.49 1.53 1.54 1.54 1.64 1.68 1.67 1.78 1.78 1.84 1.89 1.92 1.91 1.90 1.92 1.93 1.96 1.97 1.98 1.96 1.96 1.97 2.00 2.04 2.03 2.02 1.96 1.86 1.78 1.76 1.83 1.89 1.88 1.82 1.81 1.82 1.84 1.88 1.96 2.01 1.93 1.90 1.80 1.78 1.77 1.73 1.72 1.71 1.71 1.71 1.71
1.03 1.06 1.09 1.10 1.13 1.17 1.24 1.25 1.25 1.29 1.37 1.42 1.45 1.48 1.54 1.59 1.64 1.67 1.71 1.76 1.84 1.81 1.82 1.84 1.84 1.87 1.91 1.92 1.96 1.98 2.00 2.02 1.97 1.96 1.99 1.99 1.98 1.99 1.99 1.94 1.88 1.82 1.79 1.85 2.01 1.96 1.87 1.80 1.82 1.86 1.88 1.94 1.98 1.90 1.81 1.81 1.83 1.81 1.80 1.80 1.80 1.79 1.79
1.09 1.11 1.12 1.13 1.17 1.22 1.27 1.30 1.32 1.33 1.36 1.40 1.44 1.49 1.56 1.58 1.62 1.62 1.67 1.72 1.80 1.86 1.87 1.80 1.77 1.83 1.88 1.91 1.94 1.95 1.97 1.99 2.00 1.99 2.00 2.00 1.95 1.97 1.99 2.00 1.97 1.94 1.94 1.92 2.01 1.98 1.96 1.93 1.87 1.87 1.89 1.90 1.89 1.89 1.84 1.84 1.88 1.88 1.88 1.87 1.88 1.90 1.90
1.05 1.09 1.12 1.13 1.16 1.20 1.26 1.29 1.32 1.36 1.39 1.40 1.38 1.47 1.56 1.60 1.60 1.58 1.59 1.64 1.70 1.76 1.82 1.85 1.93 2.01 2.02 2.00 2.01 2.02 2.00 1.99 2.01 2.03 2.03 1.98 1.99 2.03 2.05 2.07 2.06 2.02 2.03 2.01 2.04 2.05 2.01 1.95 1.85 1.84 1.90 1.95 1.96 1.97 1.91 1.89 1.92 1.93 1.93 1.93 1.94 1.95 1.96
0.97 1.00 1.03 1.11 1.22 1.27 1.29 1.31 1.32 1.35 1.36 1.37 1.41 1.51 1.57 1.60 1.58 1.57 1.56 1.60 1.63 1.62 1.65 1.77 1.89 1.93 1.97 2.00 2.03 2.05 2.07 2.10 2.06 2.04 2.06 2.03 2.06 2.04 2.04 2.07 2.04 2.02 2.00 2.00 2.01 1.95 1.89 1.85 1.86 1.86 1.89 1.92 1.92 1.92 1.91 1.89 1.89 1.91 1.91 1.94 1.96 1.99 2.00
0.93 0.93 0.96 1.07 1.20 1.28 1.27 1.28 1.30 1.33 1.38 1.43 1.48 1.52 1.58 1.60 1.55 1.54 1.57 1.61 1.64 1.62 1.62 1.69 1.83 1.86 1.89 1.94 1.99 2.01 2.04 2.00 1.98 1.99 2.02 2.03 2.00 1.98 1.97 1.97 1.96 1.95 1.93 1.89 1.87 1.83 1.82 1.84 1.86 1.85 1.85 1.87 1.89 1.88 1.88 1.89 1.89 1.93 1.97 1.99 2.00 2.01 2.01
0.87 0.90 0.96 1.08 1.20 1.24 1.24 1.30 1.33 1.36 1.42 1.47 1.50 1.54 1.56 1.55 1.50 1.51 1.55 1.57 1.60 1.66 1.73 1.73 1.75 1.77 1.88 1.92 1.95 1.98 1.96 1.97 2.15 2.10 1.98 1.94 1.90 1.89 1.87 1.88 1.88 1.86 1.85 1.86 1.85 1.83 1.82 1.83 1.83 1.82 1.81 1.82 1.84 1.86 1.88 1.92 1.94 1.95 1.99 2.00 2.02 2.02 2.02
0.80 0.85 0.92 1.02 1.12 1.21 1.24 1.29 1.32 1.34 1.43 1.49 1.52 1.54 1.56 1.54 1.47 1.47 1.50 1.54 1.60 1.72 1.74 1.73 1.80 1.80 1.82 1.90 1.85 1.81 1.86 1.88 1.87 1.84 1.85 1.84 1.84 1.80 1.75 1.76 1.76 1.79 1.82 1.80 1.78 1.77 1.75 1.74 1.74 1.74 1.74 1.77 1.80 1.83 1.86 1.89 1.91 1.93 1.95 1.98 1.99 1.98 2.02
0.88 0.91 0.95 1.02 1.10 1.16 1.23 1.26 1.35 1.40 1.46 1.47 1.49 1.51 1.52 1.52 1.47 1.45 1.44 1.45 1.56 1.66 1.68 1.66 1.66 1.67 1.72 1.76 1.72 1.68 1.71 1.76 1.78 1.80 1.81 1.79 1.79 1.76 1.71 1.70 1.71 1.72 1.72 1.72 1.72 1.71 1.70 1.71 1.72 1.72 1.71 1.73 1.75 1.79 1.83 1.86 1.90 1.93 1.94 1.94 1.94 1.97 2.00
0.93 0.94 0.98 1.03 1.06 1.14 1.18 1.21 1.28 1.35 1.38 1.43 1.42 1.44 1.46 1.48 1.46 1.46 1.43 1.45 1.54 1.53 1.56 1.61 1.63 1.67 1.60 1.69 1.77 1.71 1.68 1.68 1.67 1.67 1.70 1.73 1.74 1.69 1.66 1.66 1.68 1.65 1.70 1.71 1.69 1.67 1.66 1.69 1.72 1.71 1.70 1.68 1.67 1.71 1.76 1.81 1.83 1.84 1.86 1.87 1.89 1.93 1.96
0.99 1.02 1.07 1.14 1.18 1.19 1.19 1.19 1.18 1.19 1.19 1.20 1.22 1.22 1.28 1.33 1.36 1.37 1.41 1.45 1.52 1.51 1.51 1.52 1.51 1.53 1.55 1.52 1.55 1.62 1.59 1.55 1.52 1.59 1.63 1.60 1.65 1.63 1.63 1.61 1.61 1.58 1.57 1.58 1.58 1.58 1.56 1.56 1.56 1.55 1.54 1.54 1.55 1.57 1.60 1.64 1.67 1.71 1.78 1.85 1.89 1.94 2.01
1.00 1.02 1.06 1.10 1.19 1.24 1.21 1.18 1.16 1.13 1.09 1.04 1.04 1.03 1.05 1.09 1.13 1.17 1.23 1.37 1.41 1.44 1.40 1.42 1.41 1.38 1.41 1.37 1.31 1.33 1.38 1.36 1.35 1.38 1.41 1.45 1.46 1.46 1.43 1.39 1.35 1.33 1.32 1.32 1.34 1.37 1.38 1.38 1.37 1.36 1.36 1.36 1.38 1.41 1.45 1.48 1.54 1.59 1.65 1.70 1.75 1.78 1.83
1.02 1.04 1.11 1.17 1.19 1.22 1.21 1.19 1.16 1.14 1.12 1.09 1.03 0.97 0.95 0.95 0.95 0.98 1.01 1.03 1.07 1.08 1.08 1.08 1.05 1.08 1.11 1.13 1.17 1.14 1.13 1.14 1.10 1.05 1.05 1.06 1.07 1.09 1.12 1.11 1.12 1.11 1.12 1.12 1.15 1.16 1.18 1.19 1.17 1.16 1.17 1.20 1.25 1.28 1.30 1.34 1.42 1.48 1.53 1.58 1.63 1.67 1.71
1.13 1.07 1.09 1.10 1.16 1.19 1.20 1.22 1.18 1.16 1.15 1.15 1.13 1.01 0.91 0.89 0.88 0.87 0.84 0.85 0.85 0.85 0.85 0.85 0.90 0.89 0.88 0.88 0.88 0.90 0.93 0.91 0.89 0.89 0.89 0.91 0.94 0.94 0.95 0.94 0.92 0.94 0.98 1.04 1.06 1.06 1.04 1.03 1.05 1.07 1.10 1.13 1.17 1.19 1.20 1.25 1.30 1.40 1.51 1.56 1.59 1.60 1.60
1.12 1.12 1.13 1.20 1.23 1.22 1.16 1.22 1.24 1.18 1.16 1.17 1.18 1.13 1.02 0.96 0.95 0.92 0.89 0.87 0.85 0.83 0.78 0.78 0.79 0.78 0.79 0.80 0.82 0.82 0.83 0.84 0.85 0.86 0.86 0.84 0.83 0.84 0.88 0.94 0.94 0.90 0.87 0.90 0.96 0.99 1.01 1.01 0.99 1.02 1.04 1.02 1.06 1.12 1.10 1.12 1.22 1.33 1.40 1.45 1.48 1.51 1.52
1.12 1.16 1.17 1.24 1.23 1.18 1.11 1.15 1.24 1.22 1.19 1.19 1.20 1.18 1.15 1.13 1.14 1.12 1.10 1.07 1.06 1.01 0.97 0.94 0.91 0.91 0.92 0.92 0.91 0.90 0.88 0.86 0.84 0.84 0.84 0.84 0.83 0.82 0.80 0.81 0.86 0.88 0.88 0.89 0.89 0.91 0.91 0.93 0.94 0.97 0.98 0.97 0.93 0.99 1.05 1.09 1.13 1.17 1.21 1.24 1.27 1.29 1.31
1.18 1.24 1.23 1.24 1.25 1.19 1.13 1.14 1.20 1.19 1.18 1.20 1.19 1.18 1.17 1.16 1.17 1.18 1.19 1.19 1.16 1.13 1.09 1.05 0.98 0.94 0.92 0.91 0.90 0.88 0.86 0.83 0.80 0.78 0.74 0.72 0.71 0.70 0.67 0.65 0.64 0.69 0.76 0.78 0.79 0.79 0.80 0.80 0.80 0.81 0.82 0.85 0.88 0.88 0.91 0.95 0.99 1.03 1.07 1.10 1.12 1.12 1.12
Wind_Speed
8 8 9 11 12 14 16 17 17 17 17 17 17 16 16 16 15 15 15 15 15 15 16 16 16 16 16 16 16 16 15 15 14 14 14 13 13 13 12 12 11 11 11 11 11 11 10 9 9 9 9 9 8 8 7 7 6 6 6 6 5 5 5
7 8 9 10 11 13 14 16 17 18 19 20 20 19 18 17 17 16 16 16 16 16 16 17 17 17 17 17 17 17 16 16 15 14 14 14 13 13 13 12 12 11 11 11 11 11 10 10 9 9 9 9 9 8 8 7 7 6 6 6 6 5 5
8 8 9 9 11 12 14 15 17 18 19 20 21 21 21 20 19 18 17 17 17 17 17 18 18 18 18 18 18 18 18 17 16 16 15 15 14 14 13 13 12 12 12 12 11 11 10 10 10 10 9 9 9 9 8 8 7 7 6 6 6 6 5
9 9 10 10 11 12 13 15 16 18 19 20 22 23 23 22 22 21 20 19 19 19 18 19 19 19 19 19 19 19 19 18 17 17 16 16 15 15 14 14 13 13 12 12 11 11 11 10 10 10 10 10 9 9 8 8 7 7 7 7 6 6 6
10 10 11 11 12 12 13 14 16 18 19 20 21 23 24 24 23 22 22 21 20 20 20 19 19 20 20 20 20 20 19 19 18 18 17 16 16 15 15 14 14 13 13 12 12 11 11 11 10 10 10 10 10 9 9 8 8 7 7 7 7 7 7
10 11 11 12 13 13 13 14 16 17 19 20 21 22 24 25 25 24 23 22 22 21 21 21 21 21 20 20 20 20 20 20 19 18 18 17 17 16 16 15 15 14 14 13 12 12 12 11 11 11 11 10 10 10 9 9 8 8 8 7 7 8 8
11 12 12 12 13 14 14 15 16 17 18 20 21 22 24 25 26 26 25 24 24 23 22 22 22 22 22 21 21 21 21 20 20 19 19 18 17 17 17 16 16 15 14 14 13 13 13 12 12 11 11 11 10 10 10 9 9 9 8 8 8 8 8
12 12 12 13 13 14 15 15 16 16 17 18 20 22 23 24 26 27 27 25 25 25 24 23 23 23 23 22 22 21 21 21 21 20 20 19 19 18 18 17 16 16 15 15 14 14 13 13 13 12 12 12 11 11 10 10 10 9 9 9 9 9 8
13 13 13 13 13 13 14 15 16 16 16 17 18 20 22 24 25 27 28 27 26 26 26 25 24 24 24 23 23 22 22 21 21 21 21 21 20 19 19 18 17 16 16 15 15 15 14 14 13 13 13 13 13 12 12 11 11 10 10 10 10 10 9
14 14 14 14 14 14 14 15 16 16 16 17 18 19 20 22 24 26 28 28 28 27 27 26 25 24 24 24 24 23 23 22 22 22 22 22 21 21 20 19 18 17 17 16 16 15 15 15 14 14 14 14 14 13 13 12 12 12 11 11 11 10 10
14 14 15 15 15 15 15 15 15 16 16 17 17 18 19 20 22 25 28 29 29 28 28 27 26 25 25 25 24 24 24 23 23 23 23 22 22 22 21 20 19 19 18 17 17 17 16 16 16 15 15 15 15 14 14 14 13 13 13 13 12 12 12
14 14 15 15 15 16 16 15 15 15 15 16 17 18 19 20 21 23 26 29 30 30 29 28 28 27 26 25 25 25 25 24 24 24 23 23 23 23 22 22 21 20 19 19 18 18 17 17 17 16 16 16 16 15 15 14 14 14 14 14 13 13 13
14 14 15 15 15 16 16 16 15 15 15 16 16 17 19 20 21 21 24 27 29 31 31 29 29 29 28 27 26 26 26 25 25 24 24 24 23 23 23 22 22 21 21 20 19 19 19 18 18 17 17 17 16 16 16 16 15 15 15 15 14 14 14
14 14 15 15 15 15 15 16 16 16 15 16 16 17 18 20 21 21 22 25 28 31 32 31 30 30 29 28 27 27 27 26 26 25 25 25 24 24 23 23 23 22 22 21 21 20 20 19 19 18 18 17 17 17 17 17 17 16 16 15 15 15 15
14 14 14 15 15 14 15 15 15 16 16 15 15 16 17 19 20 21 22 23 26 29 32 32 31 31 30 29 28 28 28 27 26 26 25 25 25 25 24 24 24 23 23 22 22 21 21 20 20 19 19 19 18 18 18 18 18 17 17 16 16 16 16
14 14 14 14 14 14 14 15 15 16 16 15 15 16 17 18 20 21 22 22 24 28 31 32 32 31 31 30 30 29 28 28 27 26 26 26 26 26 25 25 25 24 24 23 23 22 22 21 21 21 20 20 19 19 19 19 18 18 18 18 17 17 17
14 14 13 13 13 13 14 14 15 15 15 15 15 16 17 18 19 20 21 22 23 26 29 31 32 31 31 30 30 29 29 29 28 27 26 26 26 26 26 26 26 25 25 24 24 23 22 22 22 21 21 20 20 20 19 19 19 19 20 19 19 19 18
14 13 13 13 13 13 13 14 15 15 15 15 15 16 17 18 18 20 21 21 23 25 27 29 31 30 30 29 29 29 29 29 29 28 27 27 26 26 26 26 26 26 26 25 24 24 23 23 22 22 21 21 20 20 20 19 19 19 19 19 20 20 20
13 13 13 13 12 13 13 13 14 14 15 15 15 15 16 17 18 19 20 21 23 25 27 29 29 30 29 29 29 29 29 29 29 28 28 27 27 26 26 26 26 26 25 25 25 24 24 23 23 22 22 22 21 21 20 20 19 19 19 20 20 20 21
13 13 13 12 12 12 12 12 13 13 14 15 15 15 15 17 18 18 19 20 22 24 27 29 29 29 29 28 28 29 29 29 29 29 28 27 27 26 26 25 25 25 25 26 26 25 25 24 24 24 23 23 22 22 21 20 20 20 20 21 21 21 22
13 12 12 12 12 12 12 12 12 12 13 14 14 14 14 16 17 17 18 18 20 22 25 28 29 29 28 28 28 28 28 28 28 28 27 27 27 27 27 26 26 25 25 25 26 26 25 24 24 24 23 23 23 22 21 21 21 21 21 22 22 23 23
12 12 12 12 12 12 12 12 12 12 12 12 13 12 13 14 15 16 16 17 18 20 22 26 28 29 29 29 29 29 29 29 29 28 28 27 27 27 28 28 27 27 26 25 25 25 25 24 24 24 24 23 22 22 22 22 21 22 22 23 23 24 24
12 12 12 12 11 11 11 12 11 11 11 11 11 11 11 11 12 14 14 15 16 18 20 24 26 27 28 29 29 29 29 29 29 29 29 28 28 28 28 28 28 27 27 26 26 25 25 24 24 24 24 23 22 22 22 22 22 22 23 23 24 24 25
12 12 12 11 11 11 11 11 10 10 10 10 10 10 10 10 10 11 12 13 14 15 17 20 23 25 26 27 28 29 29 29 29 29 29 29 28 29 29 29 28 28 28 27 27 25 24 24 24 23 23 23 23 23 23 22 22 22 23 24 24 25 25
12 12 11 11 10 10 10 10 10 9 8 9 9 9 9 9 9 9 9 11 12 13 13 15 17 19 21 23 24 25 26 27 28 28 28 27 27 27 27 27 26 27 27 27 25 23 22 23 23 23 22 22 22 22 22 22 23 23 24 25 25 26 26
11 11 11 10 10 10 10 10 8 7 8 8 8 7 7 8 8 7 7 8 9 10 10 12 13 13 14 17 18 19 20 22 24 24 25 25 24 24 23 23 24 25 25 25 24 23 22 23 23 22 21 21 21 21 22 23 23 24 24 24 25 26 26
10 11 11 10 10 10 10 9 7 6 7 7 6 5 6 6 6 6 6 6 6 7 8 9 11 11 11 12 13 14 15 16 17 19 19 19 20 20 20 21 22 23 23 24 24 23 23 22 22 21 21 21 21 21 22 23 23 23 24 24 24 25 24
10 10 10 10 9 9 8 7 6 5 5 5 5 4 5 6 5 5 4 4 4 6 7 7 8 9 9 10 10 10 11 12 13 14 14 14 15 16 17 18 19 20 21 22 22 22 21 21 21 21 21 21 21 22 22 21 21 22 22 23 23 23 22
9 9 9 8 8 7 6 5 4 3 3 3 4 4 5 5 5 5 4 3 4 5 5 5 6 7 8 9 8 7 8 10 11 12 12 12 12 13 14 15 16 17 18 19 19 19 19 19 20 20 20 20 20 20 19 19 18 18 18 18 19 18 18
8 7 7 6 6 5 4 3 3 2 2 3 4 4 5 5 5 5 5 4 4 4 4 5 5 5 6 7 7 6 5 6 8 9 9 9 9 10 10 10 12 13 15 16 16 16 16 16 16 16 16 15 15 15 15 15 14 14 14 13 13 13 13
6 6 6 5 4 3 3 2 3 3 3 3 4 4 5 5 5 5 4 4 4 4 4 5 5 5 4 5 5 5 4 4 4 5 5 6 6 6 6 7 7 8 8 10 11 12 12 11 11 11 11 11 11 11 11 12 12 12 12 11 11 10 9
5 5 5 4 3 3 3 3 4 4 4 4 4 4 5 5 5 5 4 4 5 5 5 4 5 5 6 5 5 5 5 5 5 5 5 5 5 5 5 5 6 5 5 5 5 6 6 6 6 7 7 7 7 8 8 8 9 9 9 9 9 8 8
5 4 3 2 2 3 4 4 5 5 5 5 5 5 5 4 4 5 5 6 7 7 6 6 7 7 7 6 5 5 5 5 5 5 5 5 5 4 4 5 5 5 5 5 4 4 4 4 4 4 4 5 5 5 6 6 6 6 6 7 7 7 7
4 3 2 1 2 4 5 5 6 6 5 5 5 5 4 4 5 6 6 7 7 7 8 8 8 8 7 7 6 6 6 6 5 5 5 5 5 4 4 4 5 5 5 4 4 4 3 3 3 3 3 3 4 4 5 5 6 6 6 5 6 6 6
3 2 2 2 2 4 5 6 6 6 6 5 5 5 5 5 5 6 7 8 8 8 8 7 7 8 8 7 7 7 7 6 6 6 6 6 5 5 4 4 4 4 4 3 2 2 2 1 1 2 3 3 3 4 4 4 5 5 5 5 5 5 5
3 3 3 4 3 3 5 6 7 7 6 6 6 6 6 6 6 6 7 8 8 8 8 7 7 7 7 7 7 7 7 6 6 6 6 6 6 6 5 4 3 3 3 3 2 1 1 0 1 1 2 2 2 3 3 3 4 4 4 5 5 5 5
4 4 5 5 5 4 4 6 7 7 7 6 6 6 6 6 6 6 7 8 8 8 8 7 7 7 7 7 7 6 6 6 5 5 5 5 5 5 5 5 4 4 3 3 2 1 1 1 0 0 1 1 1 1 2 2 2 3 4 4 4 5 5
4 5 6 7 6 5 5 6 8 9 8 8 7 7 7 7 7 6 6 7 7 7 7 6 6 6 6 5 5 5 5 4 4 4 4 4 3 3 3 4 4 3 3 2 2 2 1 1 1 1 1 1 1 1 1 1 2 2 3 3 4 5 5
Wind_Direction
260 259 254 245 241 239 236 233 233 230 226 225 224 225 224 222 221 220 219 216 214 214 211 207 205 205 205 204 203 202 202 202 202 203 203 203 203 203 203 204 204 206 206 207 208 209 210 212 213 215 216 218 220 222 225 228 230 231 229 231 235 241 245
267 265 263 254 246 243 241 238 234 230 229 227 225 227 225 222 222 222 222 220 218 216 214 212 209 208 209 208 207 206 206 207 207 207 207 208 208 207 207 208 209 209 210 210 211 212 213 215 215 217 218 220 222 223 225 229 232 232 230 231 236 241 244
271 268 266 260 252 248 246 244 238 234 232 230 227 228 227 224 222 222 222 223 221 219 217 215 213 211 211 211 210 210 210 210 211 211 211 212 212 212 212 213 212 212 213 214 215 215 217 218 219 219 221 223 224 224 226 229 231 232 231 232 237 242 244
275 271 267 262 257 253 251 248 244 239 236 233 230 230 228 226 224 223 223 223 222 222 220 217 216 214 213 213 214 214 213 213 214 214 215 215 216 216 217 217 216 217 218 218 218 219 220 221 222 221 222 223 224 225 226 227 228 230 233 236 241 245 248
279 275 271 266 262 258 255 252 249 244 239 236 234 231 229 228 227 227 225 223 222 222 221 220 219 216 215 215 216 217 217 216 217 217 218 218 218 219 220 220 220 221 221 221 221 222 222 222 223 223 222 222 224 225 226 228 230 232 237 241 245 249 252
280 278 275 270 265 262 258 255 253 249 243 239 236 233 230 228 228 228 226 225 223 221 221 222 221 218 217 217 217 218 219 220 220 220 220 220 220 221 221 222 223 225 225 225 224 224 224 224 225 224 223 223 223 226 229 232 234 238 242 247 251 253 254
280 279 277 273 269 265 261 258 255 252 247 243 238 235 233 231 230 229 227 225 224 223 222 222 223 221 219 218 218 218 219 221 222 222 222 222 222 223 224 225 226 227 228 228 227 227 227 227 227 227 226 225 225 227 230 234 238 241 246 250 254 255 256
279 278 276 274 272 268 264 261 258 255 250 245 241 237 235 234 231 229 227 226 225 224 223 223 223 222 221 220 220 219 219 220 222 222 223 223 224 225 226 227 228 229 229 229 229 229 230 230 230 229 228 228 229 230 233 235 238 242 247 250 253 255 256
277 275 273 272 272 269 265 263 261 257 252 247 244 240 237 236 233 229 227 226 225 225 224 223 223 223 223 222 222 222 221 221 221 222 223 224 225 226 227 229 230 229 230 230 230 231 232 233 233 231 230 230 232 235 237 239 241 243 247 250 252 254 256
278 274 272 271 270 269 267 264 263 259 254 249 245 242 240 238 235 231 227 226 226 226 225 224 224 224 224 224 224 224 224 223 222 223 223 224 226 227 227 229 230 231 231 231 232 233 234 234 234 234 233 234 236 239 241 243 245 247 250 252 253 255 256
280 276 274 272 270 269 268 265 263 261 258 253 247 244 242 241 238 234 229 226 226 226 226 225 224 224 225 226 226 226 225 225 224 224 225 225 226 227 228 228 230 231 232 233 234 235 235 235 235 236 237 238 239 241 243 245 247 250 253 255 257 258 258
284 279 277 274 271 269 267 264 263 262 261 258 253 247 244 243 240 235 231 228 227 227 227 226 224 224 224 226 227 227 227 227 226 226 226 227 227 228 228 229 230 231 232 234 235 236 237 237 237 238 239 240 242 243 245 247 250 252 255 257 259 260 260
287 282 278 275 273 270 266 264 264 264 262 259 257 251 245 243 241 237 234 231 228 227 227 226 226 225 224 225 226 228 229 229 228 227 227 228 228 229 229 230 230 231 232 234 236 238 239 240 239 239 240 242 243 245 247 249 252 254 256 257 259 261 261
291 287 282 279 275 271 268 264 263 265 263 260 258 254 248 244 241 239 237 234 231 228 226 226 227 226 226 226 226 227 229 229 230 229 229 229 229 230 231 231 232 232 233 235 237 239 240 241 240 240 241 243 245 247 249 251 254 256 255 256 258 260 261
294 291 287 283 278 274 270 265 263 265 265 262 258 255 250 245 242 240 239 237 234 230 226 226 227 226 227 227 226 227 228 228 230 230 230 230 230 230 231 232 233 234 235 236 238 239 240 240 240 241 243 245 247 250 252 253 255 255 255 256 258 260 261
296 294 291 287 281 276 272 267 265 266 266 263 259 257 253 248 244 242 241 240 237 231 226 225 225 226 226 227 227 227 227 228 229 231 231 231 231 231 232 233 234 235 236 238 238 239 239 239 240 242 244 247 249 251 253 254 255 254 254 256 258 261 263
298 295 292 289 283 279 275 271 268 268 268 266 262 259 255 252 249 245 243 242 238 231 226 223 223 224 225 226 227 227 227 228 229 231 232 232 232 233 233 234 235 236 237 238 238 239 239 240 241 242 245 248 250 252 254 255 255 255 256 257 259 262 264
299 295 292 289 285 283 280 276 272 270 270 269 267 262 257 255 252 249 247 243 237 230 225 223 222 223 223 225 227 228 228 229 230 230 231 232 233 234 235 236 236 237 237 237 238 238 239 239 240 242 244 247 249 252 254 255 256 257 258 259 261 263 264
299 296 292 290 288 286 283 279 275 272 270 270 269 265 260 257 254 251 249 245 239 231 225 222 221 222 224 226 229 229 229 230 230 230 232 233 233 234 235 236 237 237 238 238 238 239 240 241 241 243 245 247 249 251 253 254 255 257 259 260 262 264 264
298 296 293 291 289 287 283 280 278 275 272 269 268 266 262 258 255 251 249 245 240 231 224 221 222 223 225 228 231 232 232 231 231 232 232 233 233 233 233 235 237 238 238 239 239 240 242 243 244 245 246 248 249 251 252 253 255 258 259 261 263 264 265
297 296 294 291 289 286 283 282 280 278 275 271 268 267 265 261 256 252 247 242 236 229 223 221 223 225 228 230 232 234 235 235 235 235 235 234 234 234 234 235 236 237 238 239 240 241 242 244 245 246 247 248 249 250 251 254 257 259 261 263 264 265 266
297 297 294 291 288 285 284 283 281 280 278 273 268 268 268 265 257 251 247 240 232 226 223 222 224 226 229 232 234 236 237 238 237 237 238 238 238 237 236 235 235 236 237 238 240 241 241 242 244 245 247 248 250 251 252 255 259 261 263 265 266 266 267
297 298 295 292 289 285 284 283 281 280 279 275 271 269 269 268 260 250 243 237 232 227 225 225 227 229 231 234 236 237 238 239 239 238 239 240 240 239 237 235 235 237 237 238 239 241 241 242 244 245 246 248 251 253 254 256 260 263 265 267 268 268 268
300 301 299 295 290 287 286 285 281 279 278 277 275 269 265 266 262 250 239 234 230 227 227 227 229 232 234 235 237 238 240 240 240 239 239 239 239 238 237 236 236 237 236 237 240 241 241 241 243 245 247 249 252 254 255 256 261 265 268 269 270 270 270
302 304 302 296 291 287 285 285 282 279 279 279 277 270 261 257 253 246 238 233 229 228 228 228 228 230 232 233 236 238 238 238 238 238 237 236 236 235 234 233 233 234 234 235 237 240 241 241 242 245 249 251 253 255 256 258 263 268 270 271 272 272 271
302 302 300 296 291 286 282 281 281 279 277 275 272 267 257 246 238 233 231 228 226 228 229 227 225 225 227 229 232 233 233 234 234 233 232 231 229 229 229 229 230 232 233 234 237 241 244 243 242 245 249 251 253 256 259 263 267 270 271 272 272 272 272
302 300 298 294 292 287 279 273 273 272 269 265 262 255 241 229 220 217 219 220 222 227 228 224 222 223 225 224 223 224 226 227 225 223 224 224 222 223 226 229 231 233 234 236 239 242 243 242 242 245 249 252 255 259 263 266 269 271 272 273 274 273 273
304 301 299 295 293 289 277 264 261 264 261 253 241 227 216 207 198 193 194 200 212 219 220 218 217 218 216 210 208 211 215 215 213 216 220 223 222 223 227 230 231 233 235 236 238 240 240 241 244 248 252 255 258 261 263 265 269 272 273 274 274 274 273
307 306 303 297 290 284 270 250 242 251 254 238 214 200 194 189 184 179 172 172 191 204 205 202 202 204 204 202 202 205 210 213 218 224 227 228 227 228 230 232 233 233 235 236 236 237 239 243 247 251 255 257 258 259 261 263 267 271 273 273 273 272 270
314 315 312 303 287 272 255 232 218 222 229 209 189 183 179 176 177 175 171 174 182 186 182 179 178 179 186 193 195 191 195 205 215 221 222 220 222 224 224 227 229 230 233 235 235 236 239 243 247 251 254 255 255 256 259 261 264 268 270 270 269 268 265
315 315 314 308 283 248 225 204 193 189 186 180 176 174 173 174 174 171 173 181 184 177 171 171 172 165 153 154 162 164 160 159 167 178 184 186 194 201 202 205 208 211 219 225 228 231 235 238 241 243 244 247 250 252 255 258 260 264 266 266 266 264 258
309 310 310 304 262 225 202 171 159 153 148 152 158 160 163 167 166 159 155 154 157 161 165 163 160 156 145 136 139 149 148 137 135 142 147 154 165 176 180 184 185 184 192 202 207 214 219 219 221 226 230 236 242 246 251 256 261 263 263 261 260 255 245
299 303 303 286 226 205 190 167 154 145 136 135 139 139 141 146 150 151 147 139 136 137 135 130 127 131 137 138 139 143 143 137 135 137 136 141 151 156 159 169 175 174 178 182 180 181 186 188 194 203 208 218 231 241 248 254 256 258 257 255 250 245 238
288 292 275 230 190 183 181 173 161 151 142 136 133 129 129 133 138 142 143 140 136 132 124 117 115 116 121 126 129 131 132 134 137 137 137 139 145 146 149 157 161 159 160 165 169 173 177 185 199 215 227 237 249 256 258 258 258 256 253 248 243 240 239
273 273 225 198 181 174 174 169 161 154 150 148 145 139 135 135 139 141 141 139 138 135 128 121 118 116 116 118 121 123 127 130 132 134 135 137 138 139 142 147 152 154 156 159 165 173 186 204 231 257 266 268 274 276 273 269 268 263 256 250 246 246 247
242 233 203 190 183 175 171 170 165 159 155 156 157 152 146 142 140 141 142 141 138 135 133 129 123 117 115 116 118 122 127 130 130 129 128 127 125 126 126 125 126 132 139 143 144 140 145 183 247 269 269 267 273 280 279 271 266 260 251 245 246 251 255
223 216 202 193 188 179 173 172 169 162 157 158 158 156 153 148 144 142 142 141 141 141 139 135 128 122 118 116 116 118 123 128 129 126 123 120 117 117 117 117 115 114 116 122 125 116 100 93 84 300 289 280 273 278 284 278 265 253 244 242 247 255 259
213 205 197 194 189 180 175 176 173 168 165 162 159 156 154 150 148 148 146 145 146 147 145 142 136 130 126 124 121 119 119 121 123 120 117 114 110 107 109 111 110 106 101 99 97 90 80 67 43 11 352 339 323 307 299 293 281 267 257 257 261 265 269